Weather History for Fort Madison, IA

Change the Weather History Date:

Monday, February 18, 2013

  Actual Average Record
Temperature  
Mean Temperature 40 °F -  
Max Temperature 57 °F 39 °F 62 °F (1997)
Min Temperature 23 °F 23 °F -15 °F (1978)
Degree Days  
Heating Degree Days 24    
Moisture  
Dew Point 30 °F    
Average Humidity 71    
Maximum Humidity 93    
Minimum Humidity 48    
Precipitation  
Precipitation 0.55 in - - ()
Sea Level Pressure  
Sea Level Pressure 29.67 in    
Wind  
Wind Speed 15 mph (SW)    
Max Wind Speed 26 mph    
Max Gust Speed 33 mph    
Visibility 9 miles    
Events Rain , Snow    
Averages and records for this station are not official NWS values.
T = Trace of Precipitation, MM = Missing Value Source: NWS Daily Summary

Daily Weather History Graph

Daily Weather History Graph

Search for Another Location

Airport:

Trip Planner

Search our weather history database for the weather conditions in past years. The results will help you decide how hot, cold, wet, or windy it might be!

Date:

Astronomy

Feb. 18, 2013 Rise Set
Actual Time 6:54 AM CST 5:44 PM CST
Civil Twilight 6:26 AM CST 6:12 PM CST
Nautical Twilight 5:55 AM CST 6:44 PM CST
Astronomical Twilight 5:23 AM CST 7:15 PM CST
Moon 11:29 AM CST (2/18) 1:35 AM CST (2/18)
Length of Visible Light 11h 45m
Length of Day
10h 49m
First Quarter, 58% of the Moon is Illuminated
Feb 18
First Quarter
Feb 25
Full
Mar 4
Last Quarter
Mar 11
New
Mar 19
First Quarter

Hourly Weather History & Observations

Time (CST) Temp. Windchill Dew Point Humidity Pressure Visibility Wind Dir Wind Speed Gust Speed Precip Events Conditions
12:15 AM 37.4 °F 29.3 °F 26.6 °F 65% 29.81 in 10.0 mi SSE 12.7 mph 21.9 mph N/A   Clear
12:35 AM 37.4 °F 28.9 °F 26.6 °F 65% 29.80 in 10.0 mi SSE 13.8 mph 20.7 mph N/A   Clear
12:55 AM 37.4 °F 28.5 °F 26.6 °F 65% 29.78 in 10.0 mi SSE 15.0 mph 20.7 mph N/A   Clear
1:15 AM 37.4 °F 29.3 °F 28.4 °F 70% 29.78 in 10.0 mi SSE 12.7 mph 21.9 mph N/A   Clear
1:35 AM 37.4 °F 28.5 °F 28.4 °F 70% 29.77 in 10.0 mi SSE 15.0 mph 21.9 mph N/A   Clear
1:55 AM 37.4 °F 28.9 °F 28.4 °F 70% 29.76 in 10.0 mi SSE 13.8 mph 19.6 mph N/A   Clear
2:15 AM 37.4 °F 28.5 °F 28.4 °F 70% 29.75 in 10.0 mi SSE 15.0 mph 18.4 mph N/A   Clear
2:35 AM 37.4 °F 29.3 °F 28.4 °F 70% 29.74 in 10.0 mi South 12.7 mph 20.7 mph N/A   Clear
2:55 AM 37.4 °F 29.3 °F 28.4 °F 70% 29.73 in 10.0 mi South 12.7 mph 19.6 mph N/A   Clear
3:15 AM 35.6 °F 27.1 °F 28.4 °F 75% 29.72 in 10.0 mi SSE 12.7 mph - N/A   Clear
3:35 AM 35.6 °F 27.1 °F 28.4 °F 75% 29.71 in 10.0 mi SSE 12.7 mph - N/A   Clear
3:55 AM 35.6 °F 26.6 °F 28.4 °F 75% 29.69 in 10.0 mi South 13.8 mph - N/A   Clear
4:15 AM 35.6 °F 26.6 °F 28.4 °F 75% 29.69 in 10.0 mi SSE 13.8 mph 17.3 mph N/A   Clear
4:35 AM 37.4 °F 28.9 °F 30.2 °F 75% 29.68 in 10.0 mi SSE 13.8 mph - N/A   Clear
4:55 AM 37.4 °F 29.3 °F 30.2 °F 75% 29.67 in 10.0 mi South 12.7 mph - N/A   Clear
5:15 AM 37.4 °F 28.9 °F 30.2 °F 75% 29.67 in 10.0 mi South 13.8 mph - N/A   Clear
5:35 AM 37.4 °F 28.9 °F 30.2 °F 75% 29.66 in 10.0 mi South 13.8 mph - N/A   Clear
6:15 AM 37.4 °F 28.9 °F 30.2 °F 75% 29.66 in 10.0 mi South 13.8 mph - N/A   Clear
6:35 AM 37.4 °F 29.8 °F 30.2 °F 75% 29.65 in 10.0 mi South 11.5 mph - N/A   Clear
6:55 AM 39.2 °F 32.0 °F 30.2 °F 70% 29.64 in 10.0 mi South 11.5 mph - N/A   Clear
7:15 AM 39.2 °F 31.2 °F 30.2 °F 70% 29.64 in 10.0 mi South 13.8 mph 18.4 mph N/A   Clear
7:35 AM 39.2 °F 31.6 °F 30.2 °F 70% 29.64 in 10.0 mi South 12.7 mph - N/A   Clear
7:55 AM 39.2 °F 32.5 °F 30.2 °F 70% 29.65 in 10.0 mi SSE 10.4 mph - N/A   Clear
8:15 AM 41.0 °F 34.3 °F 30.2 °F 65% 29.64 in 10.0 mi South 11.5 mph - N/A   Clear
8:35 AM 42.8 °F 36.6 °F 32.0 °F 66% 29.64 in 10.0 mi South 11.5 mph - N/A   Clear
8:55 AM 44.6 °F 39.2 °F 33.8 °F 66% 29.64 in 10.0 mi South 10.4 mph - N/A   Clear
9:15 AM 48.2 °F - 33.8 °F 58% 29.63 in 10.0 mi South 18.4 mph 21.9 mph N/A   Clear
9:35 AM 51.8 °F - 33.8 °F 50% 29.62 in 10.0 mi SSW 15.0 mph 27.6 mph N/A   Clear
9:55 AM 51.8 °F - 33.8 °F 50% 29.62 in 10.0 mi SSW 18.4 mph 24.2 mph N/A   Mostly Cloudy
10:15 AM 51.8 °F - 35.6 °F 54% 29.61 in 10.0 mi SSW 17.3 mph 25.3 mph N/A   Scattered Clouds
10:35 AM 51.8 °F - 35.6 °F 54% 29.61 in 10.0 mi SSW 12.7 mph 20.7 mph N/A   Scattered Clouds
10:55 AM 55.4 °F - 37.4 °F 51% 29.60 in 10.0 mi SSW 16.1 mph 23.0 mph N/A   Mostly Cloudy
11:15 AM 57.2 °F - 37.4 °F 48% 29.59 in 10.0 mi SSW 13.8 mph 27.6 mph N/A   Scattered Clouds
11:35 AM 55.4 °F - 37.4 °F 51% 29.59 in 10.0 mi SSW 17.3 mph 23.0 mph N/A   Mostly Cloudy
11:55 AM 55.4 °F - 37.4 °F 51% 29.59 in 10.0 mi SSW 13.8 mph 21.9 mph N/A   Overcast
12:15 PM 53.6 °F - 39.2 °F 58% 29.58 in 10.0 mi South 10.4 mph - N/A   Overcast
12:35 PM 55.4 °F - 39.2 °F 54% 29.56 in 10.0 mi SSW 11.5 mph 19.6 mph N/A   Overcast
12:55 PM 55.4 °F - 39.2 °F 54% 29.56 in 10.0 mi SSW 11.5 mph 19.6 mph N/A   Overcast
1:15 PM 53.6 °F - 39.2 °F 58% 29.55 in 10.0 mi South 13.8 mph - N/A   Overcast
1:35 PM 53.6 °F - 39.2 °F 58% 29.54 in 10.0 mi South 12.7 mph 17.3 mph N/A   Overcast
1:55 PM 50.0 °F - 44.6 °F 82% 29.54 in 5.0 mi SSW 10.4 mph 17.3 mph N/A Rain Light Rain
2:15 PM 48.2 °F - 44.6 °F 87% 29.53 in 7.0 mi SSW 9.2 mph - 0.05 in Rain Rain
2:35 PM 48.2 °F - 44.6 °F 87% 29.53 in 3.0 mi WSW 8.1 mph - 0.14 in Rain Heavy Rain
2:55 PM 42.8 °F 34.5 °F 37.4 °F 81% 29.53 in 2.0 mi NW 18.4 mph 25.3 mph 0.31 in Rain Heavy Rain
3:15 PM 41.0 °F 32.8 °F 37.4 °F 87% 29.53 in 4.0 mi NW 16.1 mph 27.6 mph 0.08 in Rain Rain
3:35 PM 39.2 °F 30.5 °F 37.4 °F 93% 29.52 in 7.0 mi NW 16.1 mph 21.9 mph 0.11 in Rain Light Rain
3:55 PM 39.2 °F 28.5 °F 35.6 °F 87% 29.53 in 7.0 mi NW 24.2 mph 29.9 mph 0.13 in Rain Rain
4:15 PM 37.4 °F 26.1 °F 33.8 °F 87% 29.55 in 3.0 mi NW 24.2 mph 28.8 mph 0.06 in Rain Rain
4:35 PM 35.6 °F 25.2 °F 32.0 °F 87% 29.58 in 1.2 mi NW 18.4 mph 26.5 mph 0.10 in Snow Light Snow
5:15 PM 33.8 °F 24.8 °F 30.2 °F 87% 29.59 in 0.8 mi NW 12.7 mph - 0.01 in Snow Snow
5:35 PM 33.8 °F 24.3 °F 30.2 °F 87% 29.60 in 1.2 mi NW 13.8 mph - 0.01 in Snow Light Snow
5:55 PM 33.8 °F 21.9 °F 30.2 °F 87% 29.63 in 1.2 mi WNW 21.9 mph 28.8 mph 0.01 in Snow Light Snow
6:15 PM 33.8 °F 22.5 °F 30.2 °F 87% 29.66 in 7.0 mi NW 19.6 mph 27.6 mph N/A Snow Light Snow
6:35 PM 33.8 °F 21.0 °F 28.4 °F 81% 29.68 in 10.0 mi NW 25.3 mph 33.4 mph N/A   Overcast
6:55 PM 32.0 °F 19.2 °F 26.6 °F 80% 29.70 in 10.0 mi NW 23.0 mph 28.8 mph N/A   Overcast
7:15 PM 32.0 °F 19.2 °F 26.6 °F 80% 29.71 in 10.0 mi WNW 23.0 mph 29.9 mph N/A   Overcast
7:35 PM 30.2 °F 16.5 °F 24.8 °F 80% 29.71 in 10.0 mi WNW 24.2 mph 33.4 mph N/A   Overcast
7:55 PM 30.2 °F 17.8 °F 24.8 °F 80% 29.73 in 10.0 mi WNW 19.6 mph 27.6 mph N/A   Overcast
8:15 PM 30.2 °F 17.1 °F 21.2 °F 69% 29.74 in 10.0 mi WNW 21.9 mph 32.2 mph N/A   Overcast
8:35 PM 28.4 °F 15.1 °F 21.2 °F 74% 29.75 in 10.0 mi WNW 20.7 mph 26.5 mph N/A   Overcast
8:55 PM 28.4 °F 15.1 °F 21.2 °F 74% 29.76 in 10.0 mi WNW 20.7 mph 27.6 mph N/A   Overcast
9:15 PM 28.4 °F 16.6 °F 21.2 °F 74% 29.78 in 10.0 mi WNW 16.1 mph 27.6 mph N/A   Overcast
9:35 PM 28.4 °F 15.4 °F 19.4 °F 69% 29.80 in 10.0 mi West 19.6 mph 31.1 mph N/A   Overcast
9:55 PM 26.6 °F 12.7 °F 19.4 °F 74% 29.81 in 10.0 mi WNW 20.7 mph 26.5 mph N/A   Overcast
10:15 PM 26.6 °F 11.1 °F 17.6 °F 69% 29.82 in 10.0 mi WNW 26.5 mph 31.1 mph N/A   Overcast
10:35 PM 26.6 °F 14.7 °F 17.6 °F 69% 29.82 in 10.0 mi WNW 15.0 mph 24.2 mph N/A   Overcast
10:55 PM 24.8 °F 10.7 °F 14.0 °F 64% 29.84 in 10.0 mi WNW 19.6 mph 31.1 mph N/A   Mostly Cloudy
11:15 PM 24.8 °F 9.3 °F 14.0 °F 64% 29.84 in 10.0 mi WNW 24.2 mph 29.9 mph N/A   Mostly Cloudy
11:35 PM 24.8 °F 12.9 °F 15.8 °F 69% 29.86 in 10.0 mi West 13.8 mph - N/A   Mostly Cloudy
11:55 PM 23.0 °F 8.7 °F 12.2 °F 63% 29.87 in 10.0 mi NW 18.4 mph 32.2 mph N/A   Scattered Clouds